Stations météo

réclame
Mon MeteoGroup
Kloevsjoehoejden, Suède (2325): Température de l'air & dewpoint: 14.10.2018 19:00:00 - 20.10.2018 19:00:00 (CEST)Kloevsjoehoejden, Suède (2325): Vitesse du vent & gusts: 14.10.2018 19:00:00 - 20.10.2018 19:00:00 (CEST)Kloevsjoehoejden, Suède (2325): Direction du vent: 14.10.2018 19:00:00 - 20.10.2018 19:00:00 (CEST)Kloevsjoehoejden, Suède (2325): reduced air pressure: 14.10.2018 19:00:00 - 20.10.2018 19:00:00 (CEST)Kloevsjoehoejden, Suède (2325): visibility: 14.10.2018 19:00:00 - 20.10.2018 19:00:00 (CEST)Kloevsjoehoejden, Suède (2325): Quantités de précipitations: 14.10.2018 19:00:00 - 20.10.2018 19:00:00 (CEST)
Date & Time tt [°C] td [°C] ff [km/h] ff [knt] fx [km/h] fx [knt] dd ppp [hPa] vv [km] rr [mm]
20.10.2018 19:00:00 - - - - - - - - - -
20.10.2018 18:00:00 2,2 -0,4 10 5 18 10 WSW 1021,8 50 0,0
20.10.2018 17:00:00 3,5 0,0 5 3 20 11 SW 1021,5 50 0,0
20.10.2018 16:00:00 5,1 0,3 12 6 21 11 WSW 1021,1 50 0,0
20.10.2018 15:00:00 5,3 0,1 7 4 16 8 W 1021,1 50 0,0
20.10.2018 14:00:00 4,8 0,6 6 3 21 12 NNW 1021,6 50 0,0
20.10.2018 13:00:00 4,9 0,3 11 6 29 15 NW 1021,4 50 0,0
20.10.2018 12:00:00 3,9 0,4 10 6 27 15 NNW 1021,3 50 0,0
20.10.2018 11:00:00 4,4 0,4 10 5 17 9 NNW 1020,5 50 0,0
20.10.2018 10:00:00 3,3 0,5 9 5 21 12 NW 1020,6 50 0,0
20.10.2018 09:00:00 3,1 0,3 9 5 18 10 NNW 1019,9 50 0,0
20.10.2018 08:00:00 1,6 -0,6 12 7 18 10 NW 1019,9 50 0,0
20.10.2018 07:00:00 1,4 -1,0 11 6 27 14 WNW 1019,5 50 0,0
20.10.2018 06:00:00 1,6 -1,1 15 8 27 15 W 1018,9 50 0,0
20.10.2018 05:00:00 1,8 -1,5 19 10 26 14 W 1018,7 50 0,0
20.10.2018 04:00:00 2,4 -1,2 15 8 36 19 W 1018,2 50 0,0
20.10.2018 03:00:00 2,2 -1,8 21 11 33 18 W 1018,3 50 0,0
20.10.2018 02:00:00 1,6 -2,0 16 9 31 17 WSW 1018,4 50 0,0
20.10.2018 01:00:00 1,9 -2,1 23 12 36 19 WSW 1018,8 50 0,0
20.10.2018 00:00:00 2,5 -2,6 11 6 27 15 SW 1018,9 50 0,0
19.10.2018 23:00:00 2,9 -2,8 19 10 29 16 WSW 1019,0 50 0,0
19.10.2018 22:00:00 3,0 -2,5 13 7 21 12 W 1019,1 50 0,0
19.10.2018 21:00:00 3,3 -1,8 8 4 16 8 SSW 1019,4 50 0,0
19.10.2018 20:00:00 3,3 -1,8 11 6 17 9 SW 1019,5 50 0,0
19.10.2018 19:00:00 3,1 -0,4 10 5 18 10 SSW 1020,0 50 0,0
19.10.2018 18:00:00 3,3 0,0 8 5 14 7 SSW 1020,4 50 0,0
19.10.2018 17:00:00 3,9 0,2 7 4 18 10 SW 1020,5 50 0,0
19.10.2018 16:00:00 4,4 0,2 16 8 27 15 W 1020,6 50 0,0
19.10.2018 15:00:00 4,3 -0,3 15 8 29 16 W 1021,0 50 0,0
19.10.2018 14:00:00 4,5 0,8 17 9 27 15 W 1021,3 50 0,0
19.10.2018 13:00:00 3,9 0,6 19 10 29 16 W 1021,8 50 0,0
19.10.2018 12:00:00 2,9 0,3 16 8 28 15 WSW 1022,4 50 0,0
19.10.2018 11:00:00 3,1 0,8 16 9 25 14 W 1022,2 50 0,0
19.10.2018 10:00:00 2,4 0,5 14 7 24 13 W 1022,4 50 0,0
19.10.2018 09:00:00 0,6 0,0 18 10 29 16 W 1022,5 50 0,0
19.10.2018 08:00:00 0,6 -0,5 18 10 34 19 W 1021,8 50 0,0
19.10.2018 07:00:00 0,9 -0,4 20 11 29 16 W 1021,5 50 0,0
19.10.2018 06:00:00 0,2 -0,8 19 10 32 17 W 1021,5 50 0,0
19.10.2018 05:00:00 0,6 -0,5 17 9 30 16 W 1021,9 50 0,0
19.10.2018 04:00:00 0,3 -1,3 16 9 49 26 W 1021,7 50 0,0
19.10.2018 03:00:00 1,0 -1,2 31 17 45 25 W 1020,7 50 0,0
19.10.2018 02:00:00 1,2 -1,4 26 14 50 27 WNW 1020,5 50 0,0
19.10.2018 01:00:00 1,5 -1,7 37 20 54 29 WNW 1019,7 50 0,0
19.10.2018 00:00:00 1,7 -2,1 31 17 52 28 W 1020,1 50 0,0
18.10.2018 23:00:00 1,8 -2,3 21 11 42 23 WNW 1020,4 50 0,0
18.10.2018 22:00:00 1,9 -2,4 31 17 54 29 W 1019,7 50 0,0
18.10.2018 21:00:00 2,3 -2,8 28 15 52 28 W 1019,7 50 0,0
18.10.2018 20:00:00 2,9 -2,8 31 17 48 26 W 1019,2 50 0,0
18.10.2018 19:00:00 3,6 -2,6 21 12 37 20 W 1018,8 50 0,0
18.10.2018 18:00:00 3,7 -2,5 18 10 43 23 WNW 1018,6 50 0,0
18.10.2018 17:00:00 4,3 -2,8 22 12 40 22 WNW 1017,5 50 0,0
18.10.2018 16:00:00 4,8 -2,8 22 12 49 26 WNW 1017,4 50 0,0
18.10.2018 15:00:00 4,6 -2,7 31 17 56 31 WNW 1017,1 50 0,0
18.10.2018 14:00:00 5,0 -2,6 28 15 51 28 WNW 1016,1 50 0,0
18.10.2018 13:00:00 4,6 -1,2 17 9 37 20 W 1016,3 50 0,0
18.10.2018 12:00:00 4,6 -1,4 23 13 38 21 W 1015,6 50 0,0
18.10.2018 11:00:00 3,7 -1,3 22 12 38 20 W 1016,0 48 0,0
18.10.2018 10:00:00 3,9 0,1 19 11 30 16 W 1015,5 50 0,0
18.10.2018 09:00:00 2,7 0,3 16 8 25 14 W 1015,5 50 0,0
18.10.2018 08:00:00 1,7 1,3 14 8 22 12 W 1015,1 50 0,0
18.10.2018 07:00:00 2,2 2,2 12 7 18 10 WSW 1014,8 40 0,0
18.10.2018 06:00:00 2,4 2,4 9 5 12 7 SW 1014,6 0,2 0,0
18.10.2018 05:00:00 3,2 3,2 3 1 7 4 SE 1014,2 11 0,0
18.10.2018 04:00:00 3,5 3,5 3 1 11 6 E 1014,2 31 0,0
18.10.2018 03:00:00 4,0 3,9 3 1 8 5 NE 1014,0 50 0,0
18.10.2018 02:00:00 4,8 4,2 6 3 16 9 NNE 1013,6 50 0,0
18.10.2018 01:00:00 4,6 4,2 6 3 24 13 NNW 1013,5 50 0,0
18.10.2018 00:00:00 5,3 4,6 18 10 33 18 W 1012,7 50 0,0
17.10.2018 23:00:00 5,6 4,7 20 11 30 16 W 1012,2 50 0,0
17.10.2018 22:00:00 5,6 4,4 13 7 32 17 WSW 1012,3 50 0,0
17.10.2018 21:00:00 5,7 4,5 22 12 38 20 WSW 1011,8 50 0,0
17.10.2018 20:00:00 6,1 4,9 17 9 28 15 SW 1011,8 50 0,0
17.10.2018 19:00:00 6,1 4,7 19 10 48 26 WSW 1011,3 50 0,0
17.10.2018 18:00:00 6,5 4,8 25 14 48 26 WSW 1010,8 50 0,0
17.10.2018 17:00:00 7,6 5,4 13 7 34 18 SW 1010,6 50 0,0
17.10.2018 16:00:00 7,6 6,5 13 7 44 24 SW 1010,9 50 0,0
17.10.2018 15:00:00 7,1 6,4 20 11 46 25 SW 1010,6 50 0,0
17.10.2018 14:00:00 7,1 6,4 23 13 47 26 SW 1010,5 50 0,0
17.10.2018 13:00:00 6,2 5,9 23 12 44 24 SW 1011,2 50 0,0
17.10.2018 12:00:00 5,6 5,6 21 12 45 24 SW 1011,7 50 0,0
17.10.2018 11:00:00 5,6 5,5 23 12 41 22 SW 1011,9 50 0,0
17.10.2018 10:00:00 5,1 5,1 21 11 37 20 SW 1011,9 50 0,0
17.10.2018 09:00:00 4,8 4,8 24 13 47 25 SW 1011,8 50 0,0
17.10.2018 08:00:00 4,3 4,3 25 13 45 24 SW 1011,8 50 0,0
17.10.2018 07:00:00 4,2 4,2 22 12 45 24 SW 1012,2 50 0,0
17.10.2018 06:00:00 3,8 3,8 22 12 45 25 SW 1012,4 0,4 0,0
17.10.2018 05:00:00 3,6 3,6 25 14 52 28 SW 1013,1 0,5 0,0
17.10.2018 04:00:00 3,3 3,3 26 14 48 26 SW 1013,3 0,4 0,0
17.10.2018 03:00:00 3,1 3,1 23 12 46 25 SW 1014,2 0,3 0,0
17.10.2018 02:00:00 3,1 3,1 20 11 42 23 SSW 1014,9 0,3 0,0
17.10.2018 01:00:00 2,9 2,9 13 7 29 16 SSW 1015,6 2,3 0,0
17.10.2018 00:00:00 1,9 1,9 18 10 34 18 S 1016,8 0,2 0,0
16.10.2018 23:00:00 2,2 2,2 16 9 33 18 S 1017,0 0,7 0,0
16.10.2018 22:00:00 2,2 2,2 18 10 35 19 SSW 1017,9 18 0,0
16.10.2018 21:00:00 2,4 2,1 19 11 32 17 SSW 1018,4 50 0,0
16.10.2018 20:00:00 2,2 1,8 13 7 20 11 SSW 1019,1 50 0,0
16.10.2018 19:00:00 2,1 1,4 10 5 27 15 SSW 1019,5 50 0,0
16.10.2018 18:00:00 3,2 2,2 16 9 23 13 S 1019,6 50 0,0
16.10.2018 17:00:00 3,7 2,4 15 8 23 12 S 1019,6 50 0,0
16.10.2018 16:00:00 5,1 3,9 11 6 26 14 S 1019,3 50 0,0
16.10.2018 15:00:00 5,8 4,6 13 7 24 13 S 1019,0 50 0,0
16.10.2018 14:00:00 5,7 4,7 13 7 19 10 SSE 1019,3 50 0,0
16.10.2018 13:00:00 6,0 5,1 10 5 17 9 S 1019,6 49 0,0
16.10.2018 12:00:00 6,1 5,1 6 4 12 7 S 1019,3 50 0,0
16.10.2018 11:00:00 5,5 4,5 3 2 6 4 WSW 1020,1 50 0,0
16.10.2018 10:00:00 3,5 2,9 3 2 10 5 WNW 1020,3 50 0,0
16.10.2018 09:00:00 3,1 3,1 3 2 14 8 W 1019,8 50 0,0
16.10.2018 08:00:00 1,3 1,3 11 6 14 8 NNW 1019,3 50 0,0
16.10.2018 07:00:00 0,6 0,6 8 4 19 11 NNW 1019,2 50 0,0
16.10.2018 06:00:00 0,9 0,9 12 7 19 11 NW 1018,5 50 0,0
16.10.2018 05:00:00 0,8 0,8 10 5 18 10 NW 1018,0 50 0,0
16.10.2018 04:00:00 0,8 0,8 13 7 19 10 NW 1017,7 50 0,0
16.10.2018 03:00:00 0,9 0,9 11 6 18 10 NW 1017,1 50 0,0
16.10.2018 02:00:00 1,3 1,3 11 6 19 10 NW 1016,6 50 0,0
16.10.2018 01:00:00 1,5 1,5 12 6 20 11 NW 1015,8 50 0,0
16.10.2018 00:00:00 1,5 1,5 13 7 16 9 WNW 1015,7 24 0,0
15.10.2018 23:00:00 1,8 1,8 9 5 17 9 NNW 1015,1 0,5 0,0
15.10.2018 22:00:00 1,9 1,9 10 6 19 10 NNW 1014,5 0,3 0,0
15.10.2018 21:00:00 1,9 1,9 8 4 16 9 N 1014,6 0,3 0,0
15.10.2018 20:00:00 2,0 2,0 9 5 16 8 N 1014,3 0,2 0,0
15.10.2018 19:00:00 2,1 2,1 9 5 18 10 N 1014,5 0,3 0,0
15.10.2018 18:00:00 2,1 2,1 10 5 18 10 N 1014,4 0,3 0,0
15.10.2018 17:00:00 2,2 2,2 10 5 17 9 N 1014,1 0,3 0,0
15.10.2018 16:00:00 2,2 2,2 10 6 18 10 N 1013,8 0,2 0,0
15.10.2018 15:00:00 2,2 2,2 10 5 21 11 NNE 1014,2 0,4 0,0
15.10.2018 14:00:00 2,4 2,4 11 6 23 12 NNE 1014,1 0,2 0,0
15.10.2018 13:00:00 2,2 2,2 13 7 24 13 NNE 1014,6 0,3 0,1
15.10.2018 12:00:00 2,3 2,3 13 7 30 16 NNE 1014,7 0,4 0,8
15.10.2018 11:00:00 2,5 2,5 16 8 29 16 NNE 1014,3 0,8 0,4
15.10.2018 10:00:00 2,7 2,7 13 7 21 11 NNE 1014,2 16 1,3
15.10.2018 09:00:00 3,1 3,1 10 5 18 10 NE 1013,4 0,6 1,1
15.10.2018 08:00:00 3,7 3,7 8 5 16 8 NNE 1012,4 0,3 0,6
15.10.2018 07:00:00 3,9 3,8 7 4 17 9 NNE 1011,8 31 0,0
15.10.2018 06:00:00 4,0 4,0 8 5 27 14 NNE 1010,8 5 0,1
15.10.2018 05:00:00 5,8 4,8 16 9 29 16 N 1009,6 9 0,0
15.10.2018 04:00:00 9,1 7,1 15 8 46 25 W 1007,0 18 0,0
15.10.2018 03:00:00 8,5 6,5 17 9 39 21 WSW 1005,9 20 0,0
15.10.2018 02:00:00 8,7 6,5 13 7 37 20 SSW 1005,1 21 0,0
15.10.2018 01:00:00 9,2 6,5 12 7 40 22 SW 1005,6 25 0,0
15.10.2018 00:00:00 9,3 6,7 15 8 33 18 SSW 1006,1 24 0,0
14.10.2018 23:00:00 9,3 6,9 15 8 45 24 S 1006,8 23 0,0
14.10.2018 22:00:00 9,8 7,1 21 12 58 32 SSW 1006,7 25 0,0
14.10.2018 21:00:00 10,5 7,0 25 13 49 26 SSW 1006,4 36 0,0
14.10.2018 20:00:00 11,4 7,1 22 12 51 27 SSW 1006,5 43 0,0
14.10.2018 19:00:00 12,4 7,5 23 12 46 25 SSW 1006,7 49 0,0

tt = Température de l'air
td = dewpoint
ff = Vitesse du vent
fx = gusts
dd = Direction du vent
ppp = reduced air pressure
vv = visibility
rr = Quantités de précipitations

stations d'obs. à proximité